www.pogodaiklimat.ru

Погода и климат >> Архив погоды >> Антарктида >> Captain Arturo Prat Base


ПОГОДА на Captain Arturo Prat Base

  • Прогноз погоды на Captain Arturo Prat Base
  • Монитор погоды на Captain Arturo Prat Base

АРХИВ ПОГОДЫ на Captain Arturo Prat Base

Время (UTC), дата Ветер
(напр.,м/с)
 
Видим.   Явления Облачность Т
(С)
Тd
(С)
f
(%)
Тe
(С)
Тes
(С)
Комфортность P
(гПа)
Po
(гПа)
Тmin
(С)
Tmax
(С)
R
(мм)
R24
(мм)
S
(см)
21 12.07 Ю 6 10 км 4/0 1500 м
[Ac trans]
-1.6 -4.3 82 -9 -9 1015.9 1015.3
00 13.07 штиль 0 10 км 6/0
[Cs]
-2.8 -5.8 80 -4 -4 1014.9 1014.3 -5.9 -0.9
03 13.07 штиль 0 10 км 6/0 1500 м
[Ac trans Cs]
-2.2 -8.2 63 -3 -3 1014.5 1013.9
06 13.07 Ю 2 10 км 5/0
[Cs]
-1.1 -7.1 64 -4 -4 1014.9 1014.3
09 13.07 Ю 4 10 км 5/0
[Cs]
-0.8 -6.8 64 -6 -6 1014.8 1014.2
12 13.07 В 3 10 км 8/0
[Cs]
-2.6 -6.1 77 -7 -7 1014.9 1014.3 -4.1 50
15 13.07 З 4 10 км 9/0 1500 м
[Ac trans Cs]
-2.8 -5.5 82 -9 -9 1015.0 1014.4
18 13.07 СВ 4 10 км 8/0
[Cs]
-4.5 -6.2 88 -11 -11 1015.0 1014.4
21 13.07 Ю 2 10 км 8/0
[Cs]
-4.3 -5.7 90 -9 -9 1015.3 1014.7
00 14.07 штиль 0 10 км 9/0
[Cs]
-5.4 -6.4 93 -6 -6 1015.2 1014.6 -2.0
03 14.07 ЮЗ 2 10 км 4/4 450 м
[Sc]
-4.9 -5.9 93 -9 -9 1015.2 1014.6
06 14.07 Ю 3 6000 м дымка 8/8 300 м
[Sc]
-3.6 -4.0 97 -9 -9 1015.0 1014.4
09 14.07 ЮЗ 2 8000 м дымка 10/10 300 м
[Sc]
-4.2 -4.4 99 -8 -8 1014.2 1013.6
12 14.07 штиль 0 3000 м слаб. снег 10/10 150 м
[Sc]
-2.6 -3.4 94 -4 -4 1013.5 1012.9 -5.3 1 50
15 14.07 Ю 2 10 км {снег} 10/10 300 м
[Sc]
-2.3 -2.6 98 -6 -6 1013.5 1012.9
18 14.07 СВ 3 10 км {снег} 10/10 300 м
[Sc]
-1.5 -2.2 95 -6 -6 1012.1 1011.5 0.0
21 14.07 СВ 8 10 км {снег} 10/10 300 м
[Sc]
-0.3 -1.0 95 -8 -8 1011.0 1010.4
00 15.07 СВ 9 4000 м слаб. снег 10/10 180 м
[Sc]
-0.3 -1.2 94 -9 -9 1010.0 1009.4 +0.3 2
03 15.07 СВ 9 2000 м слаб. снег 10/10 150 м
[Sc]
-0.5 -1.0 96 -9 -9 1008.5 1007.9
06 15.07 С 9 3000 м слаб. снег 10/10 120 м
[Sc]
-0.5 -0.5 100 -9 -9 1007.2 1006.6 2
09 15.07 С 10 3000 м слаб. снег 10/10 120 м
[Sc]
-0.3 -0.7 97 -9 -9 1006.0 1005.4
12 15.07 С 7 2000 м слаб. снег 10/10 120 м
[Sc]
-0.9 -0.9 100 -8 -8 1004.6 1004.0 -0.9 1 55
15 15.07 С 4 4000 м слаб. снег 10/10 180 м
[Sc]
-1.0 -1.0 100 -7 -7 1004.0 1003.4
18 15.07 штиль 0 3000 м дымка {снег} 10/10 120 м
[Sc]
-0.8 -0.8 100 -2 -2 1003.0 1002.4 2
21 15.07 ЮЗ 2 1000 м дымка {снег} 10/10 120 м
[Sc]
-0.9 -0.9 100 -4 -4 1002.0 1001.4
06 16.07 С 5 3000 м слаб. снег 10/10 120 м
[Sc]
-1.2 -1.2 100 -8 -8 997.2 996.6 1
09 16.07 С 9 3000 м слаб. снег 10/10 120 м
[Sc]
-1.1 -1.2 99 -9 -9 994.2 993.6
12 16.07 В 9 4000 м слаб. дождь со снегом 10/10 150 м
[Sc]
-0.3 -0.5 99 -9 -9 990.1 989.5 -1.3 1 55
15 16.07 СВ 10 4000 м слаб. дождь со снегом 10/10 150 м
[Sc]
-0.2 -0.3 99 -9 -9 986.0 985.4
18 16.07 СВ 10 6000 м дымка {снег, дождь} 10/10 180 м
[Sc]
-0.2 -0.3 99 -9 -9 982.8 982.2 1
21 16.07 СВ 9 8000 м дымка {снег} 10/10 210 м
[Sc]
+0.2 -0.4 96 -8 -8 981.1 980.5
00 17.07 В 15 1000 м метель {снег} 10/10 120 м
[Sc]
-3.9 -3.9 100 -15 -15 980.0 979.4 -3.9 +0.4 2 5
03 17.07 В 17 800 м сильная метель 10/0 90 м
[As op]
-5.1 -5.1 100 -17 -17 980.2 979.6
06 17.07 В 16 500 м сильная метель 10/0 120 м
[As op]
-5.7 -5.8 99 -18 -18 981.2 980.6
09 17.07 В 13 500 м сильная метель 10/0 120 м
[As op]
-4.9 -4.9 100 -16 -16 982.0 981.4
12 17.07 ЮЗ 4 6000 м дымка 10/10 210 м
[Sc]
-3.6 -3.6 100 -10 -10 984.0 983.4 -5.9 55
15 17.07 ЮЗ 8 4000 м слаб. ливневой снег 10/10 210 м
[Sc]
-1.5 -1.5 100 -10 -10 986.1 985.5
18 17.07 ЮЗ 9 8000 м дымка {ливн. осадки, снег} 6/6 210 м
[Sc]
-2.2 -2.3 99 -11 -11 987.9 987.3 1
21 17.07 ЮЗ 4 10 км 10/10 450 м
[Sc]
-1.3 -3.5 85 -7 -7 991.0 990.4
00 18.07 ЮЗ 3 10 км 5/5 450 м
[Sc]
-2.4 -3.4 93 -8 -8 994.0 993.4 -1.2
03 18.07 ЮЗ 6 8000 м дымка 6/6 450 м
[Sc]
-3.1 -3.2 99 -11 -11 995.8 995.2
06 18.07 Ю 2 6000 м дымка 10/10 300 м
[Sc]
-3.5 -3.5 100 -7 -7 997.2 996.6
09 18.07 Ю 2 6000 м дымка 10/10 300 м
[Sc]
-3.0 -3.0 100 -7 -7 997.2 996.6
12 18.07 В 6 4000 м дымка 10/10 240 м
[Sc]
-1.1 -1.1 100 -8 -8 996.8 996.2 -4.2 57
15 18.07 СВ 4 10 км 10/10 300 м
[Sc]
-0.4 -1.1 95 -6 -6 996.9 996.3
18 18.07 В 7 10 км 10/10 240 м
[Sc]
-0.5 -1.2 95 -8 -8 996.0 995.4
21 18.07 В 10 4000 м дымка 10/10 150 м
[Sc]
-2.4 -2.4 100 -12 -12 995.0 994.4
00 19.07 В 12 2000 м дымка 10/10 120 м
[Sc]
-4.1 -4.2 99 -14 -14 995.9 995.3 +0.1
03 19.07 В 14 2000 м метель 10/10 120 м
[Sc]
-5.6 -5.7 99 -17 -17 995.2 994.6
06 19.07 В 12 3000 м позёмок 10/10 120 м
[Sc]
-6.7 -6.9 98 -18 -18 996.0 995.4
09 19.07 В 13 2000 м метель 10/10 120 м
[Sc]
-6.9 -7.1 98 -18 -18 995.0 994.4
12 19.07 В 12 6000 м позёмок 10/10 150 м
[Sc]
-7.6 -7.8 98 -19 -19 995.2 994.6 -7.6 57
15 19.07 В 11 10 км {метель} 10/10 150 м
[Sc]
-8.4 -8.8 97 -19 -19 994.8 994.2
18 19.07 В 12 10 км 10/10 180 м
[Sc]
-8.4 -8.8 97 -20 -20 995.0 994.4

 

Местоположение метеостанции Captain Arturo Prat Base (Антарктида): широта -62.50 долгота -59.68 высота над уровнем моря 5 м.

В архиве по умолчанию представлена погода на Captain Arturo Prat Base за последнюю неделю. Архивные данные за месяц целиком и за предыдущие месяцы, начиная с января 2011 года, Вы можете получить, выбрав интересующий диапазон дат из раскрывающегося списка и нажав кнопку "Ввод!".


*Определитесь, кто Вы:
робот инопланетянин человек

Внимание! Время в таблицах - всемирное. Для получения местного времени необходимо прибавить поправку, которая равна 0 ч.

Смотрите также архив погоды в соседних городах и на ближайших метеорологических станциях:

Погода на Острове Хуана Карлоса (Антарктида) (40 км)
Погода на Чанчэн (Антарктида) (49 км)
Погода на Frei Chi-Base (Антарктида) (51 км)
Погода на Беллинсгаузене (Антарктида) (51 км)
Погода на Dinamet-Уругвай (Антарктида) (57 км)
Погода на King Sejong (Антарктида) (58 км)
Погода на Carlini Base (Антарктида) (62 км)
Погода на Габриэль де Кастилья (Антарктида) (74 км)
Погода на Бернардо О`Хиггинс (Антарктида) (127 км)
Погода на Эсперансе (Антарктида) (169 км)

Пояснения к столбцам:

Ветер - указаны скорость ветра в м/с - средняя за 10 мин, порывы в срок и между сроками (в фигурных скобках) и направление, откуда дует ветер: С - северный, СВ - северо-восточный, В - восточный, ЮВ - юго-восточный, Ю - южный, ЮЗ - юго-западный, З - западный, СЗ - северо-западный.
Видимость - горизонтальная дальность видимости в метрах или километрах. При видимости от 1 до 10 км при отсутствии осадков обычно наблюдается дымка, при ухудшении видимости до 1 км и менее - туман. В сухую погоду видимость может ухудшаться дымом, пылью или мглою.
Явления - указаны атмосферные явления, наблюдавшиеся в срок или в последний час перед сроком; фигурными скобками обозначены явления, наблюдавшиеся между сроками (за 1-3 часа до срока); квадратными скобками обозначены град или гололедные отложения с указанием их диаметра в мм.
Облачность - указаны через наклонную черту общая и нижняя облачность в баллах и высота нижней границы облаков в метрах; квадратными скобками обозначены формы облаков: Ci - перистые, Cs - перисто-слоистые, Cc - перисто-кучевые, Ac - высококучевые, As - высокослоистые, Sc - слоисто-кучевые, Ns - слоисто-дождевые, Cu - кучевые, Cb - кучево-дождевые. Подробнее классификацию облаков см. в Атласе облаков (PDF).
T - Температура воздуха - температура, измеренная на высоте 2 м над землей.
Td - Температура точки росы - температура, при понижении до которой содержащийся в воздухе водяной пар достигнет насыщения.
f - Относительная влажность воздуха - влажноcть воздуха, измеренная на высоте 2 м над землей.
Te - Эффективная температура - температура, которую ощущает одетый по сезону человек в тени. Характеристика душности погоды. При расчете учитывается влияние влажности воздуха и скорости ветра на теплоощущения человека.
Tes - Эффективная температура на солнце - температура, которую ощущает человек, с поправкой на солнечный нагрев. Характеристика знойности погоды. Зависит от высоты солнца над горизонтом, облачности и скорости ветра. Ночью, в пасмурную погоду, а также при ветре 12 м/с и более поправка равна нулю.
P - Атмосферное давление - приведенное к уровню моря атмосферное давление.
Po - Атмосферное давление - измеренное на уровне метеостанции атмосферное давление.
Tmin - Минимальная температура - минимум температуры воздуха на высоте 2 м над землей.
Tmax - Максимальная температура - максимум температуры воздуха на высоте 2 м над землей.
R - Количество осадков - Количество выпавших осадков за период времени, мм. При наведении курсора мыши на число - период времени, за который выпало указанное количество осадков.
R24 - Количество осадков - Количество выпавших осадков за 24 часа, мм.
S - Снежный покров - Высота снежного покрова, см. При наведении курсора мыши на число - состояние снежного покрова и степень покрытия местности в баллах.